TimeCDT,TemperatureF,Dew PointF,Humidity,Sea Level PressureIn,VisibilityMPH,Wind Direction,Wind SpeedMPH,Gust SpeedMPH,PrecipitationIn,Events,Conditions,WindDirDegrees,DateUTC
12:13 AM,48.2,44.6,87,30.03,10.0,Calm,Calm,-,N/A,,Clear,0,2013-07-21 05:13:00
12:33 AM,48.2,44.6,87,30.02,10.0,Calm,Calm,-,N/A,,Clear,0,2013-07-21 05:33:00
12:52 AM,46.4,44.6,93,30.02,10.0,Calm,Calm,-,N/A,,Clear,0,2013-07-21 05:52:00
1:13 AM,48.2,44.6,87,30.03,10.0,Calm,Calm,-,N/A,,Clear,0,2013-07-21 06:13:00
1:33 AM,44.6,42.8,93,30.02,10.0,Calm,Calm,-,N/A,,Clear,0,2013-07-21 06:33:00
1:52 AM,42.8,42.8,100,30.02,10.0,Calm,Calm,-,N/A,,Clear,0,2013-07-21 06:52:00
2:13 AM,44.6,42.8,93,30.02,10.0,Calm,Calm,-,N/A,,Clear,0,2013-07-21 07:13:00
2:33 AM,42.8,42.8,100,30.02,10.0,Calm,Calm,-,N/A,,Clear,0,2013-07-21 07:33:00
2:53 AM,44.6,42.8,93,30.03,10.0,Calm,Calm,-,N/A,,Clear,0,2013-07-21 07:53:00
3:13 AM,42.8,42.8,100,30.02,10.0,Calm,Calm,-,N/A,,Clear,0,2013-07-21 08:13:00
3:32 AM,41.0,39.2,93,30.02,10.0,Calm,Calm,-,N/A,,Clear,0,2013-07-21 08:32:00
3:53 AM,41.0,41.0,100,30.02,10.0,Calm,Calm,-,N/A,,Clear,0,2013-07-21 08:53:00
4:13 AM,41.0,39.2,93,30.02,10.0,Calm,Calm,-,N/A,,Clear,0,2013-07-21 09:13:00
4:32 AM,41.0,39.2,93,30.01,10.0,Calm,Calm,-,N/A,,Clear,0,2013-07-21 09:32:00
4:53 AM,41.0,39.2,93,30.01,3.0,Calm,Calm,-,N/A,,Clear,0,2013-07-21 09:53:00
5:13 AM,39.2,39.2,100,30.00,10.0,Calm,Calm,-,N/A,,Clear,0,2013-07-21 10:13:00
5:32 AM,39.2,39.2,100,30.00,4.0,Calm,Calm,-,N/A,,Clear,0,2013-07-21 10:32:00
5:53 AM,41.0,39.2,93,30.01,10.0,Calm,Calm,-,N/A,,Clear,0,2013-07-21 10:53:00
6:13 AM,41.0,39.2,93,30.01,10.0,Calm,Calm,-,N/A,,Clear,0,2013-07-21 11:13:00
6:33 AM,42.8,42.8,100,30.01,10.0,Calm,Calm,-,N/A,,Clear,0,2013-07-21 11:33:00
6:53 AM,44.6,44.6,100,30.01,10.0,Calm,Calm,-,N/A,,Clear,0,2013-07-21 11:53:00
7:13 AM,48.2,44.6,87,30.01,10.0,Calm,Calm,-,N/A,,Clear,0,2013-07-21 12:13:00
7:33 AM,51.8,44.6,76,30.01,10.0,Calm,Calm,-,N/A,,Clear,0,2013-07-21 12:33:00
7:53 AM,55.4,44.6,67,30.01,10.0,SE,5.8,-,N/A,,Clear,140,2013-07-21 12:53:00
8:13 AM,55.4,44.6,67,30.01,10.0,SSE,6.9,-,N/A,,Clear,150,2013-07-21 13:13:00
8:33 AM,57.2,42.8,59,30.01,10.0,SSE,10.4,-,N/A,,Clear,150,2013-07-21 13:33:00
8:53 AM,59.0,44.6,59,30.01,10.0,SE,8.1,-,N/A,,Clear,140,2013-07-21 13:53:00
9:13 AM,60.8,44.6,55,30.01,10.0,SE,9.2,-,N/A,,Clear,140,2013-07-21 14:13:00
9:32 AM,62.6,46.4,55,30.01,10.0,SSE,6.9,-,N/A,,Clear,150,2013-07-21 14:32:00
9:53 AM,62.6,46.4,55,30.01,10.0,SSE,6.9,-,N/A,,Clear,160,2013-07-21 14:53:00
10:13 AM,62.6,46.4,55,30.00,10.0,SSE,6.9,-,N/A,,Clear,150,2013-07-21 15:13:00
10:33 AM,64.4,46.4,52,29.99,10.0,SE,5.8,-,N/A,,Clear,130,2013-07-21 15:33:00
10:53 AM,64.4,46.4,52,29.99,10.0,SSE,5.8,-,N/A,,Clear,150,2013-07-21 15:53:00
11:12 AM,66.2,46.4,49,29.98,10.0,ESE,8.1,-,N/A,,Clear,120,2013-07-21 16:12:00
11:33 AM,66.2,46.4,49,29.97,10.0,SSE,6.9,-,N/A,,Scattered Clouds,160,2013-07-21 16:33:00
11:53 AM,66.2,46.4,49,29.97,10.0,SE,6.9,-,N/A,,Mostly Cloudy,140,2013-07-21 16:53:00
12:11 PM,66.2,46.4,49,29.98,10.0,ESE,8.1,-,N/A,,Mostly Cloudy,110,2013-07-21 17:11:00
12:33 PM,66.2,46.4,49,29.97,10.0,SE,8.1,-,N/A,,Mostly Cloudy,130,2013-07-21 17:33:00
12:53 PM,66.2,46.4,49,29.97,10.0,South,8.1,-,N/A,,Overcast,170,2013-07-21 17:53:00
1:13 PM,66.2,48.2,52,29.96,10.0,South,6.9,-,N/A,,Overcast,180,2013-07-21 18:13:00
1:33 PM,69.8,48.2,46,29.95,10.0,SSE,5.8,-,N/A,,Mostly Cloudy,150,2013-07-21 18:33:00
1:53 PM,69.8,48.2,46,29.94,10.0,South,9.2,-,N/A,,Scattered Clouds,180,2013-07-21 18:53:00
2:13 PM,69.8,46.4,43,29.94,10.0,South,6.9,-,N/A,,Scattered Clouds,170,2013-07-21 19:13:00
2:32 PM,69.8,48.2,46,29.93,10.0,SSE,6.9,-,N/A,,Mostly Cloudy,160,2013-07-21 19:32:00
2:53 PM,69.8,48.2,46,29.93,10.0,SSE,5.8,-,N/A,,Scattered Clouds,160,2013-07-21 19:53:00
3:13 PM,71.6,48.2,43,29.92,10.0,SE,8.1,-,N/A,,Scattered Clouds,140,2013-07-21 20:13:00
3:32 PM,71.6,46.4,41,29.92,10.0,SSE,4.6,-,N/A,,Mostly Cloudy,160,2013-07-21 20:32:00
3:53 PM,71.6,50.0,46,29.91,10.0,SSW,4.6,-,N/A,,Scattered Clouds,200,2013-07-21 20:53:00
4:13 PM,71.6,48.2,43,29.91,10.0,Calm,Calm,-,N/A,,Scattered Clouds,0,2013-07-21 21:13:00
4:32 PM,69.8,48.2,46,29.91,10.0,South,5.8,-,N/A,,Scattered Clouds,170,2013-07-21 21:32:00
4:53 PM,69.8,48.2,46,29.90,10.0,South,4.6,-,N/A,,Scattered Clouds,170,2013-07-21 21:53:00
5:13 PM,69.8,48.2,46,29.89,10.0,SSE,9.2,-,N/A,,Scattered Clouds,150,2013-07-21 22:13:00
5:32 PM,71.6,48.2,43,29.88,10.0,SSE,10.4,-,N/A,,Clear,160,2013-07-21 22:32:00
5:53 PM,68.0,48.2,49,29.88,10.0,SSE,9.2,-,N/A,,Clear,160,2013-07-21 22:53:00
6:12 PM,69.8,48.2,46,29.87,10.0,SSE,9.2,-,N/A,,Clear,150,2013-07-21 23:12:00
6:33 PM,69.8,48.2,46,29.87,10.0,South,8.1,-,N/A,,Clear,170,2013-07-21 23:33:00
6:52 PM,69.8,48.2,46,29.87,10.0,SSE,8.1,-,N/A,,Clear,160,2013-07-21 23:52:00
7:13 PM,68.0,48.2,49,29.87,10.0,SSE,10.4,-,N/A,,Clear,150,2013-07-22 00:13:00
7:33 PM,66.2,48.2,52,29.86,10.0,SSE,9.2,-,N/A,,Clear,150,2013-07-22 00:33:00
7:52 PM,66.2,48.2,52,29.86,10.0,SSE,6.9,-,N/A,,Clear,150,2013-07-22 00:52:00
8:12 PM,64.4,48.2,56,29.85,10.0,SE,8.1,-,N/A,,Clear,140,2013-07-22 01:12:00
8:33 PM,62.6,46.4,55,29.85,10.0,SE,9.2,-,N/A,,Clear,140,2013-07-22 01:33:00
8:52 PM,60.8,46.4,59,29.86,10.0,SSE,5.8,-,N/A,,Clear,150,2013-07-22 01:52:00
9:12 PM,60.8,46.4,59,29.86,10.0,SSE,4.6,-,N/A,,Clear,150,2013-07-22 02:12:00
9:33 PM,59.0,46.4,63,29.86,10.0,SSE,8.1,-,N/A,,Clear,150,2013-07-22 02:33:00
9:52 PM,57.2,46.4,67,29.86,10.0,SSE,4.6,-,N/A,,Clear,150,2013-07-22 02:52:00
10:12 PM,57.2,44.6,63,29.86,10.0,SE,6.9,-,N/A,,Clear,140,2013-07-22 03:12:00
10:33 PM,55.4,42.8,63,29.84,10.0,SE,9.2,-,N/A,,Clear,140,2013-07-22 03:33:00
10:53 PM,55.4,42.8,63,29.84,10.0,SE,8.1,-,N/A,,Clear,140,2013-07-22 03:53:00
11:12 PM,55.4,42.8,63,29.84,10.0,SSE,4.6,-,N/A,,Scattered Clouds,160,2013-07-22 04:12:00
11:33 PM,55.4,42.8,63,29.84,10.0,SSE,5.8,-,N/A,,Mostly Cloudy,150,2013-07-22 04:33:00
11:53 PM,53.6,42.8,67,29.82,10.0,SSE,6.9,-,N/A,,Scattered Clouds,150,2013-07-22 04:53:00